TimePST,TemperatureF,Dew PointF,Humidity,Sea Level PressureIn,VisibilityMPH,Wind Direction,Wind SpeedMPH,Gust SpeedMPH,PrecipitationIn,Events,Conditions,WindDirDegrees,DateUTC
12:53 AM,5.0,1.9,87,30.47,10.0,NNE,3.5,-,N/A,,Clear,30,2013-01-21 08:53:00
1:53 AM,9.0,5.0,84,30.45,10.0,North,4.6,-,N/A,,Clear,360,2013-01-21 09:53:00
2:53 AM,6.1,1.9,83,30.45,10.0,East,3.5,-,N/A,,Clear,80,2013-01-21 10:53:00
3:53 AM,3.9,1.0,88,30.45,10.0,North,3.5,-,N/A,,Clear,10,2013-01-21 11:53:00
4:53 AM,6.1,3.0,87,30.44,10.0,Calm,Calm,-,N/A,,Clear,0,2013-01-21 12:53:00
5:53 AM,1.9,-2.0,83,30.49,10.0,Calm,Calm,-,N/A,,Clear,0,2013-01-21 13:53:00
6:00 AM,1.4,-0.4,92,30.32,10.0,NNE,3.5,-,N/A,,Clear,30,2013-01-21 14:00:00
6:53 AM,1.0,-2.0,87,30.50,10.0,NW,3.5,-,N/A,,Clear,320,2013-01-21 14:53:00
7:53 AM,1.9,-0.9,88,30.51,10.0,West,3.5,-,N/A,,Clear,280,2013-01-21 15:53:00
8:53 AM,10.0,7.0,87,30.50,10.0,Calm,Calm,-,N/A,,Clear,0,2013-01-21 16:53:00
9:53 AM,12.9,10.0,88,30.50,10.0,Calm,Calm,-,N/A,,Clear,0,2013-01-21 17:53:00
10:53 AM,21.0,12.9,71,30.46,10.0,NW,3.5,-,N/A,,Clear,320,2013-01-21 18:53:00
11:53 AM,26.1,14.0,60,30.43,10.0,Calm,Calm,-,N/A,,Clear,0,2013-01-21 19:53:00
12:53 PM,28.9,15.1,56,30.38,10.0,Calm,Calm,-,N/A,,Clear,0,2013-01-21 20:53:00
1:53 PM,32.0,17.1,54,30.34,10.0,Calm,Calm,-,N/A,,Partly Cloudy,0,2013-01-21 21:53:00
2:53 PM,35.1,15.1,44,30.32,10.0,Calm,Calm,-,N/A,,Partly Cloudy,0,2013-01-21 22:53:00
3:53 PM,34.0,17.1,50,30.33,10.0,NNW,3.5,-,N/A,,Partly Cloudy,330,2013-01-21 23:53:00
4:53 PM,28.9,15.1,56,30.34,10.0,Calm,Calm,-,N/A,,Partly Cloudy,0,2013-01-22 00:53:00
5:53 PM,21.0,12.9,71,30.38,10.0,Calm,Calm,-,N/A,,Partly Cloudy,0,2013-01-22 01:53:00
6:53 PM,19.0,12.0,74,30.39,7.0,Calm,Calm,-,N/A,,Clear,0,2013-01-22 02:53:00
7:53 PM,16.0,10.9,81,30.39,7.0,Calm,Calm,-,N/A,,Clear,0,2013-01-22 03:53:00
8:53 PM,14.0,10.0,84,30.39,7.0,Calm,Calm,-,N/A,,Clear,0,2013-01-22 04:53:00
9:53 PM,16.0,10.9,81,30.36,7.0,Calm,Calm,-,N/A,,Partly Cloudy,0,2013-01-22 05:53:00
10:53 PM,12.9,9.0,84,30.35,9.0,Calm,Calm,-,N/A,,Clear,0,2013-01-22 06:53:00
11:53 PM,12.9,9.0,84,30.33,9.0,East,4.6,-,N/A,,Clear,90,2013-01-22 07:53:00